カタログに戻る

IRIDIUM 107

運用中通信PO
NORAD 42960·PAYLOAD·🇺🇸 United States

打ち上げ Oct 9, 2017 から Vandenberg Space Force Base

Loading…

次のパス (今後24時間)

TLE

最新Source: CelesTrak SupGP

元期: Sep 14, 2026, 21:29 UTC

1 42960C 17061F   26257.89548611 -.00002577  00000+0 -92140-3 0  2578
2 42960  86.4028 347.7864 0002309  90.7839  50.9747 14.34220367    15

AllMySatでIRIDIUM 107をリアルタイム追跡

Download on the App Store